Notices

What's New in latest Release from April 7th, 2021:

- Updated Glossary, including Speed of Maximum Gust, and Total Hourly Precipitation

- Updated national and regional climate services offices contacts and prices information

- Addition of station inventory lists for 1981-2010, 1971-2000, and 1961-1990 Normals.

If you haven't already, please take our survey and provide feedback about our website: https://eccc.sondage-survey.ca/f/LanguageSelection.aspx?s=442ca660-fcf1-47c0-95a9-59707d6fd709

Hourly Data Report for April 11, 2017

CLYDE RIVER A
NUNAVUT

70°29'09.000" N
68°31'01.000" W
26.50 m
2400804
71090
YCY

Download Data

Hourly Data (April 2017)
Hourly Data Report for April 11, 2017
TIME
LST
Temp Definition
°C
Dew Point Definition
°C
Rel Hum Definition
%
Precip. Amount Definition
mm

Wind Dir Definition
10's deg

Wind Spd Definition
km/h
Visibility Definition
km
Stn Press Definition
kPa
Hmdx Definition


Wind Chill Definition


Weather Definition


00:00 -16.5 -17.6 91 0.0 4 9 16.1 100.34   -23 LegendNANA
01:00 -17.4 -18.9 88 0.0 5 8 16.1 100.36   -23 LegendNANA
02:00 -16.9 -18.4 88 0.0 3 9 16.1 100.35   -23 LegendNANA
03:00 -17.3 -18.9 87 0.0 1 9 16.1 100.35   -24 LegendNANA
04:00 -17.3 -18.7 89 0.0 35 13 16.1 100.36   -25 LegendNANA
05:00 -18.3 -20.1 86 0.0 32 13 16.1 100.38   -26 Snow
06:00 -17.5 -19.2 87 0.0 32 11 16.1 100.37   -25 LegendNANA
07:00 -16.0 -17.4 89 0.0 31 13 16.1 100.35   -24 LegendNANA
08:00 -15.0 -16.4 89 0.0 35 11 16.1 100.34   -22 LegendNANA
09:00 -12.9 -14.2 90 0.0 33 15 16.1 100.30   -20 LegendNANA
10:00 -12.9 -14.3 89 0.0 34 18 16.1 100.27   -21 Snow
11:00 -12.5 -13.7 91 0.0 33 17 16.1 100.27   -20 LegendNANA
12:00 -12.2 -13.5 90 0.0 35 22 16.1 100.24   -21 Snow
13:00 -11.4 -12.7 90 0.0 34 22 16.1 100.22   -20 LegendNANA
14:00 -11.1 -12.4 90 0.0 33 24 6.4 100.19   -20 Snow
15:00 -11.2 -12.5 90 0.0 33 24 16.1 100.20   -20 Snow
16:00 -11.2 -12.8 88 0.0 33 26 12.9 100.19   -20 Snow
17:00 -11.1 -12.7 88 0.0 34 24 6.4 100.22   -20 Snow
18:00 -11.3 -12.8 89 0.0 33 26 4.8 100.19   -21 Snow
19:00 -11.5 -13.0 89 0.0 33 26 4.8 100.19   -21 Snow
20:00 -11.8 -13.3 89 0.0 33 28 11.3 100.20   -22 Snow
21:00 -12.2 -13.8 88 0.0 33 28 12.9 100.19   -22 Snow
22:00 -12.2 -13.8 88 0.0 33 30 11.3 100.17   -22 Snow
23:00 -12.3 -13.9 88 0.0 33 34 8.1 100.14   -23 Snow

Notes on Data Quality.

Legend

  • E = Estimated
  • M = Missing
  • NA = Not Available*
  • [empty] = Indicates an unobserved value
Date modified: